Weather History for KLND - February, 2014

Change the Weather History Date:

Wednesday, February 5, 2014

  Actual Average Record
Temperature  
Mean Temperature -9 °F 23 °F  
Max Temperature -3 °F 34 °F 61 °F (1963)
Min Temperature -15 °F 12 °F -31 °F (1899)
Degree Days  
Heating Degree Days 74 42  
Month to date heating degree days 289 213  
Since 1 July heating degree days 4805 4803  
Cooling Degree Days 0 0  
Month to date cooling degree days 0 0  
Year to date cooling degree days 0 0  
Moisture  
Dew Point -13 °F    
Average Humidity 78    
Maximum Humidity 92    
Minimum Humidity 64    
Precipitation  
Precipitation 0.01 in 0.02 in 0.56 in (1974)
Month to date precipitation 0.07 0.08  
Year to date precipitation 0.68 0.49  
Snow  
Snow 0.20 in 0.30 in - ()
Month to date snowfall 1.4 1.6  
Since 1 July snowfall 52.9 44.9  
Snow Depth 1.00 in    
Sea Level Pressure  
Sea Level Pressure 30.34 in    
Wind  
Wind Speed 6 mph (NNW)    
Max Wind Speed 13 mph    
Max Gust Speed 16 mph    
Visibility 5 miles    
Events Snow    
T = Trace of Precipitation, MM = Missing Value Source: NWS Daily Summary

Daily Weather History Graph

Daily Weather History Graph

Search for Another Location

Airport or City:

Trip Planner

Search our weather history database for the weather conditions in past years. The results will help you decide how hot, cold, wet, or windy it might be!

Date:

Astronomy

Feb. 05, 2014 Rise Set
Actual Time 7:24 AM MST 5:33 PM MST
Civil Twilight 6:55 AM MST 6:03 PM MST
Nautical Twilight 6:21 AM MST 6:36 PM MST
Astronomical Twilight 5:48 AM MST 7:09 PM MST
Moon 10:31 AM MST (2/5) No Moon Set
Length of Visible Light 11h 07m
Length of Day
10h 08m
Waxing Crescent, 40% of the Moon is Illuminated
Feb 5
Waxing Crescent
Feb 6
First Quarter
Feb 14
Full
Feb 22
Last Quarter
Mar 1
New

Hourly Weather History & Observations

Time (MST) Temp. Windchill Dew Point Humidity Pressure Visibility Wind Dir Wind Speed Gust Speed Precip Events Conditions
12:53 AM -8.0 °F -25.0 °F -11.9 °F 83% 30.55 in 6.0 mi WNW 9.2 mph - N/A   Overcast
1:37 AM -9.0 °F -22.3 °F -14.1 °F 79% 30.21 in 10.0 mi WNW 5.8 mph - N/A   Overcast
1:53 AM -9.9 °F -24.9 °F -15.0 °F 78% 30.57 in 9.0 mi WNW 6.9 mph - N/A   Scattered Clouds
2:53 AM -9.9 °F -21.5 °F -16.1 °F 74% 30.57 in 10.0 mi West 4.6 mph - N/A   Clear
3:16 AM -9.9 °F -21.5 °F -15.0 °F 78% 30.21 in 9.0 mi NW 4.6 mph - N/A   Mostly Cloudy
3:53 AM -11.0 °F -22.8 °F -15.0 °F 83% 30.58 in 9.0 mi NW 4.6 mph - N/A   Overcast
4:53 AM -11.9 °F - -17.0 °F 78% 30.61 in 10.0 mi Calm Calm - N/A   Partly Cloudy
5:53 AM -13.0 °F -27.0 °F -18.0 °F 78% 30.62 in 10.0 mi NW 5.8 mph - N/A   Clear
6:53 AM -14.1 °F -23.9 °F -18.9 °F 79% 30.63 in 10.0 mi West 3.5 mph - N/A   Partly Cloudy
7:53 AM -13.0 °F -22.7 °F -20.0 °F 71% 30.65 in 10.0 mi NW 3.5 mph - N/A   Clear
8:19 AM -13.0 °F -27.0 °F -18.0 °F 78% 30.24 in 9.0 mi NNW 5.8 mph - N/A   Mostly Cloudy
8:35 AM -13.0 °F -28.6 °F -18.0 °F 78% 30.25 in 2.5 mi NW 6.9 mph - N/A   Haze
8:43 AM -11.9 °F -28.7 °F -17.0 °F 78% 30.25 in 4.0 mi NW 8.1 mph - N/A   Haze
8:53 AM -11.0 °F -28.8 °F -16.1 °F 78% 30.66 in 4.0 mi NW 9.2 mph - N/A   Haze
9:02 AM -9.9 °F -26.3 °F -16.1 °F 74% 30.25 in 10.0 mi NW 8.1 mph - N/A   Scattered Clouds
9:53 AM -9.0 °F -25.2 °F -14.1 °F 79% 30.68 in 10.0 mi NW 8.1 mph - N/A   Overcast
10:05 AM -9.0 °F -25.2 °F -15.0 °F 75% 30.26 in 7.0 mi NW 8.1 mph - N/A   Overcast
10:13 AM -8.0 °F -25.0 °F -14.1 °F 75% 30.26 in 5.0 mi NNW 9.2 mph - N/A   Haze
10:28 AM -8.0 °F -25.0 °F -14.1 °F 75% 30.26 in 10.0 mi NNW 9.2 mph - N/A   Mostly Cloudy
10:39 AM -7.1 °F -21.4 °F -14.1 °F 72% 30.26 in 9.0 mi NW 6.9 mph - N/A   Mostly Cloudy
10:53 AM -7.1 °F -23.9 °F -14.1 °F 72% 30.65 in 10.0 mi NW 9.2 mph - N/A   Overcast
11:53 AM -5.1 °F -21.5 °F -13.0 °F 69% 30.61 in 10.0 mi WNW 9.2 mph - N/A   Mostly Cloudy
12:34 PM -4.0 °F -17.8 °F -11.9 °F 69% 30.21 in 6.0 mi West 6.9 mph - N/A   Haze
12:53 PM -4.0 °F -20.2 °F -13.0 °F 65% 30.58 in 8.0 mi WNW 9.2 mph - N/A   Overcast
1:07 PM -5.1 °F -22.5 °F -11.9 °F 72% 30.20 in 1.5 mi NW 10.4 mph - 0.00 in Snow Light Snow
1:20 PM -4.0 °F -16.3 °F -13.0 °F 65% 30.18 in 3.0 mi NNW 5.8 mph - 0.00 in   Haze
1:30 PM -4.0 °F -17.8 °F -13.0 °F 65% 30.18 in 2.5 mi NW 6.9 mph - 0.00 in   Haze
1:51 PM -4.0 °F -20.2 °F -11.2 °F 71% 30.17 in 1.8 mi NW 9.2 mph - 0.00 in Snow Light Snow
1:53 PM -4.0 °F - -13.0 °F 65% 30.56 in 1.8 mi North - - 0.00 in Snow Light Snow
2:13 PM -4.0 °F -19.0 °F -9.9 °F 76% 30.16 in 0.8 mi NW 8.1 mph - 0.00 in Snow Light Snow
2:38 PM -4.0 °F -17.8 °F -9.9 °F 76% 30.16 in 1.0 mi NW 6.9 mph - 0.00 in Snow Light Snow
2:51 PM -2.2 °F -16.8 °F -9.4 °F 71% 30.16 in 0.8 mi NW 8.1 mph - 0.00 in Snow Light Snow
2:53 PM -2.9 °F -15.0 °F -9.0 °F 75% 30.54 in 0.8 mi NNW 5.8 mph - 0.01 in Snow Light Snow
3:04 PM -2.9 °F -17.7 °F -9.9 °F 72% 30.16 in 1.2 mi NW 8.1 mph - 0.00 in Snow Light Snow
3:11 PM -4.0 °F -16.3 °F -11.0 °F 72% 30.16 in 2.0 mi NW 5.8 mph - 0.00 in   Haze
3:50 PM -4.0 °F -12.4 °F -11.2 °F 71% 30.16 in 1.5 mi North 3.5 mph - 0.00 in   Haze
3:53 PM -4.0 °F -14.6 °F -11.0 °F 72% 30.56 in 1.8 mi NNW 4.6 mph - 0.00 in   Haze
4:01 PM -4.0 °F -19.0 °F -11.0 °F 72% 30.16 in 2.0 mi WNW 8.1 mph - N/A   Haze
4:09 PM -2.9 °F -15.0 °F -11.0 °F 68% 30.16 in 1.8 mi NW 5.8 mph - N/A   Haze
4:23 PM -2.9 °F -15.0 °F -9.9 °F 72% 30.16 in 2.0 mi NW 5.8 mph - N/A   Haze
4:35 PM -4.0 °F -17.8 °F -9.9 °F 76% 30.16 in 1.0 mi NNE 6.9 mph - 0.00 in Snow Light Snow
4:42 PM -4.0 °F -17.8 °F -9.0 °F 79% 30.16 in 0.8 mi NE 6.9 mph - 0.00 in Snow Light Snow
4:53 PM -4.0 °F -19.0 °F -9.0 °F 79% 30.57 in 0.5 mi NE 8.1 mph - 0.00 in Snow Snow
5:09 PM -5.1 °F -19.1 °F -9.9 °F 80% 30.17 in 1.8 mi NNE 6.9 mph - 0.00 in   Haze
5:16 PM -5.1 °F -19.1 °F -9.9 °F 80% 30.17 in 2.5 mi NE 6.9 mph - 0.00 in   Haze
5:23 PM -5.1 °F -15.8 °F -9.9 °F 80% 30.17 in 3.0 mi NE 4.6 mph - 0.00 in   Haze
5:53 PM -6.0 °F -18.6 °F -11.0 °F 79% 30.59 in 3.0 mi NNE 5.8 mph - 0.00 in   Haze
6:09 PM -6.0 °F -18.6 °F -11.0 °F 79% 30.18 in 2.5 mi NNE 5.8 mph - N/A   Haze
6:16 PM -6.0 °F -16.9 °F -11.0 °F 79% 30.18 in 3.0 mi NNE 4.6 mph - N/A   Haze
6:53 PM -7.1 °F - -11.0 °F 83% 30.61 in 6.0 mi Calm Calm - N/A   Overcast
7:24 PM -6.0 °F - -11.0 °F 79% 30.18 in 2.5 mi Calm Calm - N/A   Haze
7:36 PM -7.1 °F -22.8 °F -11.0 °F 83% 30.18 in 1.8 mi NE 8.1 mph - 0.00 in Snow Light Snow
7:42 PM -7.1 °F -19.9 °F -11.0 °F 83% 30.18 in 3.0 mi NE 5.8 mph - 0.00 in Snow Light Snow
7:53 PM -8.0 °F -21.0 °F -11.0 °F 86% 30.61 in 7.0 mi NE 5.8 mph - 0.00 in   Overcast
8:11 PM -8.0 °F -19.2 °F -11.9 °F 83% 30.18 in 10.0 mi NNE 4.6 mph - N/A   Overcast
8:34 PM -9.0 °F - -13.0 °F 83% 30.18 in 10.0 mi Calm Calm - N/A   Overcast
8:53 PM -9.0 °F - -11.9 °F 87% 30.61 in 10.0 mi Calm Calm - N/A   Overcast
9:53 PM -9.9 °F -23.4 °F -14.1 °F 82% 30.59 in 2.0 mi North 5.8 mph - 0.00 in Snow Light Snow
10:00 PM -9.9 °F -24.9 °F -14.1 °F 82% 30.18 in 2.0 mi North 6.9 mph - 0.00 in Snow Light Snow
10:12 PM -11.0 °F -22.8 °F -15.0 °F 83% 30.18 in 5.0 mi North 4.6 mph - 0.00 in   Mostly Cloudy
10:16 PM -11.0 °F -22.8 °F -15.0 °F 83% 30.18 in 7.0 mi North 4.6 mph - 0.00 in   Mostly Cloudy
10:50 PM -11.2 °F - -16.6 °F 77% 30.18 in 5.0 mi Calm Calm - 0.00 in   Haze
10:53 PM -11.0 °F -20.4 °F -16.1 °F 78% 30.59 in 4.0 mi North 3.5 mph - 0.00 in   Haze
11:04 PM -11.9 °F -23.8 °F -16.1 °F 82% 30.17 in 9.0 mi North 4.6 mph - N/A   Overcast
11:53 PM -11.9 °F -21.5 °F -16.1 °F 82% 30.57 in 10.0 mi North 3.5 mph - N/A   Overcast